Helicity
36 45 40 35 35 49 42 29 39 31 20 16 74 107 130 156 143 133 125 22 46 21 27 38 46 68 75 98 102 25 42 64 43 27 28 31 60 71 98 76 132 92 85 72 90 86 54
39 45 25 28 34 46 54 44 44 27 25 25 28 98 106 149 169 170 183 52 52 32 32 43 45 65 70 61 119 59 33 70 58 27 48 81 119 101 165 113 116 165 123 99 57 54 32
36 24 47 58 51 28 31 21 23 17 33 21 47 69 140 130 147 154 176 93 50 57 42 43 46 47 60 86 81 83 92 84 77 71 58 50 83 113 96 114 101 146 66 52 26 22 19
35 54 65 53 49 61 66 72 45 24 32 36 36 76 104 122 143 146 129 74 22 49 53 49 41 53 86 91 77 75 89 80 79 45 74 119 139 104 150 133 47 59 41 74 38 65 59
57 58 58 43 67 75 69 64 47 34 26 24 24 65 87 86 120 153 204 137 54 106 66 69 65 82 80 66 81 59 65 65 89 84 91 77 108 114 113 69 70 47 93 32 69 3 70
67 59 52 63 73 69 86 66 28 37 24 26 13 31 25 33 55 106 152 192 64 138 105 89 120 99 54 93 94 84 69 62 68 81 127 117 108 112 53 55 98 78 34 67 77 38 6
66 42 66 74 91 74 60 40 35 31 7 20 6 6 30 44 54 71 101 72 60 193 213 179 60 178 59 97 90 101 74 51 64 52 83 69 88 50 31 30 54 100 125 102 79 64 38
76 48 65 79 88 64 34 52 32 24 -4 -0 11 9 21 35 30 37 46 132 140 301 188 125 103 150 83 77 111 117 86 77 62 46 74 77 34 16 36 54 34 40 43 42 37 31 42
60 83 82 82 91 54 37 45 23 8 4 -0 5 -13 -20 27 41 24 64 74 69 176 223 88 83 68 90 87 90 57 29 63 35 19 26 26 43 58 21 28 29 18 32 39 48 76 47
98 74 88 82 51 13 17 21 16 10 16 8 13 -20 -9 24 -21 14 10 39 -17 -40 266 159 114 133 105 109 97 49 18 80 97 27 33 22 24 32 35 18 13 36 32 48 49 42 15
79 73 52 53 13 18 21 21 16 15 1 29 30 5 -15 15 32 26 15 25 47 124 242 80 165 84 72 104 85 75 41 87 59 61 72 41 34 14 4 6 43 52 109 72 70 78 98
79 53 70 33 38 27 25 25 23 -11 7 46 14 15 9 16 -0 6 14 78 131 184 192 170 159 127 129 112 108 93 95 131 132 69 34 55 57 50 33 62 52 128 78 54 58 71 80
58 68 56 30 39 25 23 21 -1 -6 38 14 11 35 12 -6 11 11 27 165 129 176 36 104 130 143 122 137 111 70 88 100 80 93 54 27 26 43 61 75 81 87 102 76 8 92 142
52 72 55 30 29 20 20 22 -11 27 35 26 -0 52 9 5 50 55 141 200 246 91 132 68 83 92 172 129 86 61 37 59 42 54 63 50 53 22 76 55 85 51 107 91 117 82 120
48 67 61 18 15 17 18 -12 15 52 23 -2 26 20 1 23 29 -5 113 99 138 117 111 80 98 146 184 95 122 84 44 37 45 42 84 80 96 82 62 73 72 101 89 70 130 111 157
44 62 53 20 9 15 20 8 41 27 10 31 54 30 15 21 19 100 138 72 172 134 52 56 104 70 87 96 123 86 62 52 76 17 33 102 80 58 95 94 62 62 132 167 188 132 104
52 71 45 18 3 17 15 52 55 35 46 157 36 16 39 26 59 103 72 107 120 75 80 73 18 54 34 36 70 65 72 101 16 28 19 51 70 69 96 52 56 97 114 169 155 226 183
59 66 51 22 1 8 -10 22 56 49 156 106 -0 -7 43 79 135 59 95 124 88 107 122 78 35 40 28 37 85 77 85 93 27 22 31 37 54 54 27 38 39 69 84 46 190 165 242
41 60 54 29 -3 -7 -25 7 59 111 144 28 22 61 73 136 129 92 227 147 100 92 114 79 72 82 61 40 88 63 60 47 20 14 20 75 34 40 60 57 17 64 29 56 200 180 328
35 54 65 41 -2 -8 -29 46 57 156 138 21 60 88 118 82 109 91 155 199 141 94 76 61 68 40 46 43 79 33 31 29 20 25 146 74 56 43 -33 -0 25 74 100 135 196 330 295
38 59 57 33 5 -15 22 43 69 144 153 105 83 76 124 29 129 115 84 75 119 58 33 62 85 70 80 52 31 39 32 26 25 53 64 75 33 17 42 46 21 26 62 107 108 213 331
40 64 63 35 9 -18 51 66 83 107 176 105 88 119 103 49 27 41 68 17 23 63 44 53 44 35 45 42 48 14 7 16 17 45 52 49 41 27 64 23 28 85 39 41 90 114 135
20 52 43 37 24 -24 66 70 86 78 99 80 104 54 79 51 24 46 35 21 24 40 63 65 33 19 46 47 19 32 38 40 36 27 -0 33 42 11 40 49 96 7 48 86 44 65 79
29 53 54 53 26 -15 56 56 62 72 72 47 48 46 54 65 61 58 33 33 30 40 25 36 34 26 30 23 29 8 -22 -3 20 11 8 26 29 16 37 60 4 21 71 72 142 44 25
44 54 52 48 36 -18 48 60 78 74 82 35 54 36 58 89 68 59 66 45 30 33 41 28 28 40 25 10 25 -3 -17 15 48 49 25 -2 8 23 15 49 119 22 44 34 85 69 73
53 58 66 62 51 -8 48 77 89 94 99 66 12 46 47 76 61 68 76 43 23 25 26 32 43 29 9 22 15 25 22 47 50 47 3 -2 23 65 35 38 -0 -3 15 33 133 35 -15
51 62 60 69 51 -0 41 69 89 109 114 73 37 29 53 91 54 60 -27 35 40 28 43 40 34 3 -2 11 26 35 49 40 63 41 26 27 31 72 67 17 29 41 22 78 27 76 29
60 59 65 64 48 5 2 75 103 104 105 67 71 36 55 39 65 76 70 54 37 28 5 6 20 23 16 12 32 27 40 31 48 44 14 7 -4 5 2 -1 -9 15 29 26 36 16 28
62 56 70 62 34 14 -25 65 107 123 137 88 43 78 92 43 80 34 31 21 45 51 34 -10 18 7 4 -15 7 27 31 36 55 50 19 26 -5 -2 32 17 -0 12 37 51 72 64 -38
Wind_Speed
60 59 63 64 71 75 78 81 82 83 82 82 81 80 79 78 73 69 64 44 32 39 42 38 38 37 36 41 48 25 31 37 42 35 36 33 39 42 54 49 46 61 66 58 66 66 65
59 57 59 64 67 73 78 81 83 85 85 85 84 81 81 78 77 72 67 53 34 33 38 37 34 34 40 49 34 31 32 33 40 39 41 40 41 46 50 53 52 48 61 68 64 66 67
60 56 62 64 67 72 77 82 87 88 87 88 87 84 82 79 77 75 70 62 44 32 34 35 32 35 46 42 31 32 34 31 33 36 43 43 46 38 43 54 56 59 69 71 71 66 61
60 61 64 64 63 67 71 78 85 87 91 91 88 85 84 80 74 72 70 64 46 31 28 30 30 36 48 37 35 31 32 33 31 29 36 31 35 43 45 40 46 52 58 68 46 44 51
60 63 65 64 66 70 74 80 85 83 85 88 87 81 76 75 72 69 68 65 62 30 26 26 34 42 49 31 34 28 27 29 25 26 29 28 33 43 43 50 57 55 63 56 56 44 49
63 64 65 68 69 72 78 80 84 85 83 80 79 73 67 66 65 64 66 68 54 26 27 28 37 43 45 42 27 23 25 23 22 19 23 30 36 42 45 48 55 60 61 62 62 43 50
68 67 68 70 71 76 78 81 83 80 75 70 69 64 64 66 65 59 59 55 49 41 42 42 42 44 25 21 19 25 20 20 25 27 35 36 43 49 50 51 62 57 59 62 59 56 71
71 69 72 75 74 77 80 79 77 72 65 66 59 44 67 67 65 64 61 61 54 38 46 48 31 32 30 24 29 25 19 27 33 37 33 39 55 53 50 51 54 57 63 67 68 67 69
71 73 76 76 79 81 78 78 71 64 59 73 46 34 38 66 71 70 75 76 67 36 44 48 36 36 39 37 36 28 28 38 37 42 39 41 39 43 50 48 52 57 64 66 71 73 81
78 79 80 80 81 80 80 71 66 60 74 63 55 41 17 75 74 71 79 69 64 43 47 41 50 50 42 36 41 26 32 32 39 47 42 55 48 42 43 51 51 61 59 64 68 70 73
81 78 79 82 83 81 77 67 61 62 68 64 68 76 74 63 54 60 54 63 44 43 59 31 39 31 43 44 25 39 33 39 42 42 39 44 45 47 51 51 44 52 49 57 63 73 86
81 77 79 84 83 78 71 64 57 56 60 63 64 66 62 59 57 62 46 48 46 54 56 40 37 46 42 51 39 30 37 42 43 46 52 58 38 42 43 40 41 44 53 59 62 67 88
79 82 81 81 81 77 66 62 32 45 44 45 59 72 57 46 49 54 53 55 61 67 36 40 43 43 42 46 41 37 40 44 42 44 54 54 61 41 42 45 41 42 51 65 70 68 80
79 82 84 83 78 75 64 58 56 47 48 65 61 59 17 21 43 46 48 60 67 47 42 31 29 32 49 41 47 42 40 46 45 45 37 44 45 32 28 37 44 40 42 54 73 73 86
79 84 84 83 77 73 61 35 54 52 45 63 59 3 31 41 37 47 63 65 50 50 31 28 24 34 39 41 42 41 46 47 47 38 41 39 45 35 25 28 27 36 41 42 70 77 84
79 80 81 82 76 70 53 44 64 48 42 60 19 27 27 34 36 54 62 48 42 35 26 22 33 39 40 44 38 40 38 42 39 35 36 39 45 32 27 31 30 28 38 46 44 65 72
79 77 79 78 74 66 38 36 47 39 56 45 23 24 24 32 38 47 59 38 36 30 25 33 31 32 33 35 41 34 35 31 28 25 20 30 36 32 31 30 24 26 36 33 36 35 62
76 76 76 74 70 60 43 23 62 51 43 21 27 20 24 40 54 44 42 33 34 32 29 28 24 29 22 22 25 29 31 32 27 23 24 26 38 48 47 41 31 11 14 13 26 46 41
73 75 76 72 65 58 57 26 46 44 37 26 20 29 37 43 50 42 41 32 30 30 27 27 27 30 27 21 32 33 34 30 28 26 29 21 42 46 36 33 23 24 13 19 28 36 44
72 75 74 70 61 56 44 30 41 39 35 36 30 41 45 40 40 36 36 32 29 21 18 18 20 19 23 27 29 35 38 35 34 36 33 31 41 47 52 51 59 17 15 20 25 32 43
71 74 72 70 60 53 33 37 39 40 39 17 34 35 38 47 42 37 33 33 26 28 23 22 27 29 32 37 39 42 39 36 33 32 31 32 57 60 59 58 51 36 48 43 27 36 33
68 70 67 67 57 51 38 35 41 32 21 12 31 31 26 36 41 38 30 30 35 29 29 34 33 33 32 35 39 41 42 45 46 31 26 43 50 50 56 46 17 46 41 29 18 18 18
63 67 65 64 56 49 42 37 38 28 18 19 23 29 32 39 39 37 41 32 29 24 26 22 24 29 37 38 38 37 39 40 42 30 49 43 43 45 48 51 53 26 23 6 16 4 5
63 67 64 60 54 46 45 37 37 26 23 20 27 31 31 36 49 53 44 34 24 31 23 23 25 31 32 32 33 35 39 48 54 55 48 41 39 42 44 42 4 36 27 3 17 13 14
63 67 66 60 54 40 44 39 39 32 30 25 28 29 31 33 36 43 47 36 23 26 32 31 30 28 29 33 38 43 42 43 51 65 65 59 44 42 41 40 41 26 51 57 42 34 16
59 64 65 62 53 39 46 41 37 35 33 29 26 27 34 38 47 35 30 26 25 36 34 32 30 31 34 37 39 44 45 43 38 34 48 58 54 49 41 40 35 28 55 53 35 36 34
55 61 63 61 56 43 51 44 38 36 34 31 31 30 34 35 33 39 26 25 36 40 34 30 34 37 38 41 46 46 46 40 41 38 34 33 39 50 42 39 28 25 47 42 16 26 16
52 57 60 59 54 44 40 47 43 39 36 33 37 28 28 32 31 39 37 38 40 45 44 38 34 38 37 44 47 48 50 45 44 38 37 39 32 36 38 39 31 31 16 27 33 30 29
49 53 57 57 53 47 33 50 47 44 40 34 34 34 35 34 35 33 35 31 34 35 37 42 39 35 40 43 45 47 49 47 47 42 44 43 43 34 36 31 27 31 23 25 14 7 42
Wind_Direction
15 15 11 7 359 352 345 339 335 331 328 325 317 313 306 297 299 297 291 282 286 286 281 284 285 284 278 269 272 297 286 272 263 253 256 259 261 262 261 264 268 265 266 273 272 272 274
12 11 8 5 360 353 346 341 337 332 327 322 317 313 308 300 291 291 286 283 278 282 277 279 282 281 273 265 284 286 285 280 262 253 252 257 267 268 271 267 266 279 271 271 275 273 274
8 7 5 1 359 353 347 340 335 331 328 323 318 312 307 301 293 283 282 280 270 272 274 273 278 274 269 270 290 284 274 278 273 260 253 258 267 267 273 272 271 274 271 272 272 273 276
5 4 1 358 356 354 349 344 339 333 328 324 322 315 308 301 293 283 278 275 263 263 268 270 272 272 268 278 280 280 270 271 273 268 264 263 270 270 272 278 278 274 272 270 281 279 279
2 1 358 356 355 351 348 343 339 338 334 330 326 321 313 303 293 283 275 265 267 250 258 265 267 264 265 281 270 270 269 265 269 269 266 264 266 268 269 270 268 267 267 269 272 284 282
0 357 355 353 351 348 346 343 339 336 334 333 330 324 312 305 295 280 271 258 269 233 246 260 267 260 262 260 266 268 264 262 261 258 261 262 263 264 264 262 264 266 266 269 273 283 284
358 356 354 352 350 347 345 342 340 339 337 337 336 329 314 300 286 280 265 252 253 241 235 253 256 256 261 269 266 258 251 246 257 254 259 259 259 259 262 264 267 275 275 274 277 284 283
357 355 353 351 349 347 345 343 342 341 343 343 343 348 307 286 279 269 257 238 240 258 237 254 251 256 253 253 257 249 239 247 247 250 257 263 260 261 267 269 269 272 273 274 280 284 285
356 355 353 350 349 348 347 345 345 345 346 316 274 270 266 284 272 262 241 234 233 261 250 241 242 244 244 244 248 239 233 246 246 249 251 260 274 269 263 268 270 272 274 278 281 285 285
357 355 354 352 350 349 348 349 349 347 311 288 282 278 330 285 266 249 234 233 229 245 242 238 239 243 238 243 247 240 235 248 250 248 254 258 265 272 270 269 273 275 281 283 286 289 288
358 357 356 356 354 354 352 353 352 345 293 289 293 302 303 281 273 240 236 220 221 238 234 231 232 244 230 234 231 239 238 251 251 255 256 266 269 267 270 274 279 281 298 293 294 291 290
357 357 357 357 357 356 357 357 357 288 287 287 288 291 285 269 254 233 229 206 211 228 235 236 234 227 218 229 241 237 240 256 261 259 260 261 282 280 283 290 288 302 299 299 299 297 289
358 358 357 357 358 359 2 2 304 287 281 278 288 291 276 232 239 217 211 199 212 224 229 231 229 222 219 224 235 236 240 246 254 259 262 268 266 285 285 288 298 295 301 297 295 293 293
360 1 1 1 2 3 6 7 303 293 288 296 294 287 331 275 231 209 204 200 212 220 222 233 213 211 227 219 237 237 241 246 255 262 275 271 277 276 296 288 299 294 296 298 297 298 300
2 3 4 5 6 7 10 318 305 300 294 302 299 163 265 225 220 201 197 200 222 210 220 217 200 225 226 222 238 240 245 252 258 262 270 280 284 302 309 314 302 309 297 307 301 302 301
4 6 7 9 9 11 18 307 318 303 302 308 267 209 234 214 200 190 198 216 221 216 207 194 229 234 231 226 237 239 243 257 263 261 273 289 289 304 311 312 304 301 321 314 310 310 308
6 8 9 11 13 17 27 309 310 304 306 299 191 225 236 209 199 199 199 217 212 195 205 233 237 233 237 224 237 232 245 271 259 271 271 292 297 310 313 305 305 304 303 313 320 314 317
8 9 11 13 16 21 27 346 317 311 308 259 220 233 214 189 186 199 212 216 190 203 239 245 244 238 217 213 237 246 256 272 272 281 282 290 298 293 298 306 318 296 308 260 311 320 312
10 10 12 14 18 21 23 2 316 316 320 120 248 196 203 198 192 203 198 195 203 218 242 244 241 241 234 225 244 251 258 273 272 271 280 290 290 300 317 327 324 320 303 264 274 278 282
10 12 14 15 20 23 27 324 318 319 322 73 195 185 188 195 198 199 191 200 207 237 254 255 246 238 237 238 258 251 254 267 269 271 293 294 293 280 231 258 286 319 281 283 300 306 287
11 13 15 17 22 26 320 322 325 328 325 213 178 183 196 201 203 203 214 215 227 236 259 259 246 245 247 249 254 257 261 266 278 285 294 297 249 245 238 247 248 246 252 254 268 266 290
13 14 17 19 24 29 314 318 325 329 326 189 179 190 216 206 207 213 227 229 232 248 259 250 248 250 256 257 257 255 254 256 260 292 298 272 257 281 254 241 355 250 252 253 264 283 314
13 15 17 19 25 31 313 314 319 320 324 222 219 209 204 208 218 224 224 230 241 263 280 281 271 263 257 264 268 274 270 273 275 293 251 264 275 288 270 290 273 258 48 53 266 314 14
13 15 17 20 25 33 315 310 316 308 312 259 262 235 229 219 205 204 220 239 264 262 277 282 278 272 278 285 282 280 275 269 261 244 248 265 280 288 249 273 159 342 29 126 48 72 52
13 15 16 20 25 35 309 308 312 300 304 288 230 242 245 245 240 230 219 244 274 267 263 265 272 280 284 276 265 258 263 264 243 221 216 218 242 272 272 266 243 346 335 1 20 34 72
14 15 17 20 25 33 308 303 298 298 297 291 249 257 233 224 225 244 252 263 267 256 259 272 272 271 280 263 258 250 247 247 251 255 241 210 209 243 244 267 285 253 329 6 50 56 56
13 13 14 17 21 29 317 298 287 291 293 284 250 269 235 224 235 230 133 256 243 239 264 270 263 270 264 254 250 250 245 250 247 249 253 254 253 214 201 226 205 221 299 22 89 47 57
11 11 12 14 16 21 344 290 285 287 285 284 242 260 267 258 241 219 232 234 238 232 229 241 261 262 263 255 253 251 244 246 249 252 247 246 268 261 229 237 260 271 232 74 291 312 46
10 9 10 11 13 16 23 290 285 285 283 277 249 247 250 245 248 255 259 277 265 265 256 243 259 276 265 262 261 254 250 245 244 247 239 243 238 263 173 192 218 246 215 240 80 214 5